マクノート彗星

C/2012 K6 ( McNaught )

English version
Home page
Updated on June 11, 2016

---------------------------------------------------------------------

・ プロフィール

発見日 2012年5月27日
発見光度 18.4等
発見者 Robert H. McNaught (Siding Spring)

・ 写真集

・ 軌道要素

Epoch 2013 May 28.0 TT = JDT 2456440.5
T 2013 May 21.49614 TT                                  MPCW
q   3.3530820            (2000.0)            P               Q
z  +0.0001565      Peri.  338.83322     -0.71568383     -0.62148150
 +/-0.0000003      Node   206.89893     -0.49561734     +0.13042472
e   0.9994753      Incl.  135.21936     -0.49209767     +0.77249605
From 1043 observations 2012 May 27-2015 Apr. 9, mean residual 0".4.

・ 星図

・ 光度変化

        m1 = 4.2 + 5 logΔ + 15.0 log r(t - 100)

---------------------------------------------------------------------

軌道要素はM.P.E.C. 2015-H37に掲載されたものです。
星図はステラナビゲータ Ver.8 (アストロアーツ) で作成したものです。
光度グラフはComet for Windowsで作成したものです。

---------------------------------------------------------------------

Copyright(C) Seiichi Yoshida (comet@aerith.net). All rights reserved.